Location: Dundir?lap?du
(17.0020°N, 80.4080°E)
Time: 00:28:55
(UTC+00:00)

Daily predictions for brighter satellites

Satellite Brightness Start Highest point End
(mag) Time Altitude Azimuth Time Altitude Azimuth Time Altitude Azimuth
Cosmos 1802 Rocket 4.0 00:00:08 10° N 00:06:25 76° W 00:12:36 10° S
Cosmos 2237 Rocket 3.1 00:04:44 10° WSW 00:09:18 25° WNW 00:13:52 10° NNW
Cosmos 1023 Rocket 4.4 00:05:09 10° NNW 00:10:12 90° SW 00:15:15 10° SSE
Delta 168 3.6 00:06:52 10° WNW 00:12:33 53° NNE 00:16:30 10° E
USA 234 3.9 00:06:49 10° SE 00:13:12 57° NE 00:19:35 10° NNW
USA 306 2.2 00:13:52 10° WSW 00:15:46 31° NW 00:18:25 10° NNE
Cosmos 2292 Rocket 4.4 00:13:49 10° SW 00:16:25 21° W 00:19:27 10° NNW
Cosmos 2173 Rocket 4.5 00:12:26 10° NNW 00:17:53 36° W 00:23:22 10° SSW
Cosmos 1269 Rocket 4.1 00:14:41 10° NNW 00:19:53 64° WSW 00:25:05 10° S
GPS 2-17 Rocket1 3.1 00:15:53 10° WNW 00:20:00 56° N 00:24:07 10° E
Cosmos 2278 Rocket 3.5 00:14:54 10° N 00:20:14 43° ENE 00:25:34 10° SE
Milstar 3 Cent rocket 4.3 00:06:21 10° WNW 00:25:30 66° SW 00:34:00 10° SE
